Location: ?????????
(53.2086°N, 54.0693°E)
Time: 02:22:37
(UTC+00:00)

CZ-4 R/B - Pass Details

Date: 08 December 2019
Orbit: 532 x 598 km, 97.7° (Epoch: 20 January)

Event Time Altitude Azimuth Distance (km) Brightness Sun altitude
Rises 15:29:50 0° 198° (SSW) 2,714 5.1 -29.0°
Reaches altitude 10° 15:32:19 10° 213° (SSW) 1,815 4.3 -29.4°
Maximum altitude 15:35:27 23° 267° (W) 1,190 3.7 -29.9°
Drops below altitude 10° 15:38:35 10° 320° (NW) 1,807 4.4 -30.3°
Sets 15:41:03 0° 336° (NNW) 2,699 5.2 -30.7°
